Location: Bastrop State Park
(30.1090°N, 97.2819°W)
Time: 19:46:55
(UTC-05:00)

Daily predictions for brighter satellites

Satellite Brightness Start Highest point End
(mag) Time Altitude Azimuth Time Altitude Azimuth Time Altitude Azimuth
Cosmos 2278 Rocket 2.2 19:57:34 10° S 20:03:11 72° ESE 20:08:51 10° NNE
SJ-6B 3.3 20:01:24 10° SE 20:04:50 35° ENE 20:08:16 10° N
Delta 128 3.8 20:05:59 10° WSW 20:10:33 58° S 20:14:55 10° E
ATLAS 5 CENTAUR R/B 2.7 20:10:45 10° SSE 20:14:27 24° ESE 20:18:17 10° ENE
ISS -2.9 20:11:57 10° SSW 20:14:49 30° SE 20:17:43 10° ENE
SWIFT 4.5 20:13:18 10° SW 20:16:08 17° S 20:18:58 10° SSE
Cosmos 1934 Rocket 3.9 20:12:02 10° S 20:18:11 76° E 20:24:15 10° N
H-II Stage 2 0.9 20:16:21 10° WSW 20:18:37 54° S 20:20:30 12° E
Cosmos 2297 4.1 20:13:54 10° S 20:19:09 40° ESE 20:24:28 10° NE
H-2A R/B 3.8 20:16:55 10° SE 20:20:10 26° ENE 20:23:29 10° NNE
Cosmos 1867 3.7 20:16:00 10° S 20:21:12 51° ESE 20:26:29 10° NE
USA 215 3.8 20:17:02 10° ENE 20:22:58 37° SE 20:28:50 10° S
Okean 3 Rocket 4.5 20:19:13 10° NNE 20:23:00 27° E 20:26:47 10° SE
Aurora 2 Rocket 4.1 20:15:49 10° WSW 20:23:17 43° S 20:28:03 13° ESE
Tiangong 1 2.4 20:21:30 10° NNW 20:23:59 24° NNE 20:25:54 13° ENE
Spot 2 Rocket 4.2 20:21:02 10° SE 20:25:35 34° ENE 20:30:09 10° N
NOAA 12 4.4 20:20:24 10° S 20:25:42 76° WSW 20:31:01 10° NNW
Cosmos 1758 3.8 20:25:49 10° SSE 20:29:28 36° E 20:33:08 10° NNE
Cosmos 1812 Rocket 4.3 20:25:12 10° SSW 20:29:32 57° W 20:33:53 10° N
Cosmos 1707 4.2 20:27:18 10° NNW 20:30:58 42° W 20:34:37 10° SSW
FREGAT/IRIS 2.9 20:28:01 10° S 20:31:04 70° W 20:34:06 10° NNW
Lacrosse 5 4.0 20:30:01 10° W 20:34:14 26° NW 20:38:26 10° NNE
Helios 1B rocket 3.3 20:32:37 10° NE 20:36:08 27° E 20:39:38 10° SSE
Cosmos 1953 2.7 20:33:31 10° SSE 20:37:22 43° E 20:41:14 10° NNE
Cosmos 2082 Rocket 3.5 20:35:02 10° NNE 20:39:10 20° ENE 20:41:10 17° E
Meteor 1-24 Rocket 3.7 20:33:50 10° N 20:39:24 89° W 20:45:12 10° S
GP-B 4.1 20:40:04 15° SE 20:42:42 26° E 20:46:23 10° NNE
Envisat 4.4 20:42:59 17° E 20:43:49 18° ENE 20:47:11 10° NNE
Helios 1A 4.1 20:43:23 21° E 20:44:24 23° ENE 20:47:43 10° NNE
Delta 2 Rocket 3.5 20:40:34 10° WNW 20:45:27 73° NNE 20:47:57 24° E
Cosmos 1271 Rocket 3.8 20:45:01 22° ESE 20:46:08 25° E 20:49:26 10° NE
Resurs 01 Rocket 1.6 20:44:36 10° SSE 20:48:58 64° ENE 20:53:20 10° N
Cosmos 1125 Rocket 3.4 20:46:42 10° SSW 20:51:54 87° ESE 20:57:07 10° NNE
Cosmos-2242 3.4 20:52:35 10° SSE 20:56:30 37° E 21:00:25 10° NNE
HJ-1C 4.4 20:56:31 10° S 20:59:47 48° W 21:03:06 10° NNW
Cosmos 1605 Rocket 4.4 20:55:43 10° SSW 21:01:53 67° W 21:08:12 10° N
Geosat 4.1 20:57:55 10° NNE 21:02:57 77° WNW 21:07:56 10° SSW
Cosmos 2100 Rocket 4.2 20:58:01 10° SSE 21:04:00 48° E 21:10:04 10° NNE
SeaSat 1 2.5 21:00:38 10° SSE 21:05:32 77° WSW 21:10:29 10° NNW
SAR-Lupe-4 3.9 21:05:55 43° ENE 21:05:55 43° ENE 21:09:11 10° N
Delta 168 3.1 21:03:46 10° WSW 21:07:19 36° S 21:07:33 36° S
Cosmos 1674 3.7 21:04:24 10° NNE 21:06:52 29° NE 21:06:52 29° NE
SL-27 R/B 4.5 21:10:32 10° NW 21:13:43 30° W 21:16:54 10° SSW
CZ-2D R/B 3.3 21:13:15 23° S 21:15:33 78° WSW 21:19:25 10° NNW
RESURS DK-1 3.8 21:14:21 10° NW 21:18:10 37° WSW 21:21:44 11° S
Meteor 1-29 3.1 21:19:06 10° N 21:22:08 66° N 21:22:08 66° N
GPS 2-05 Rocket1 3.9 21:20:33 10° W 21:23:55 39° N 21:24:11 38° N
Cosmos 1802 Rocket 3.9 21:19:19 10° SSE 21:25:16 57° E 21:31:17 10° NNE
ALOS 4.4 21:24:08 10° SSW 21:28:00 26° W 21:31:53 10° NW
COSMOS 2487 4.0 21:25:26 10° N 21:27:14 27° N 21:27:14 27° N
Meteor 1-21 Rocket 4.2 21:24:02 10° N 21:29:55 89° W 21:33:49 23° S
Cosmos 1818 3.4 21:29:05 10° NNW 21:34:32 81° ENE 21:35:22 64° SE
Cosmos 1470 3.1 21:35:45 48° SW 21:36:38 63° W 21:40:35 10° N
Cosmos 2061 Rocket 3.9 21:32:29 10° S 21:38:50 84° E 21:45:17 10° N
OAO 2 Rocket 3.4 21:34:29 10° SW 21:39:17 63° S 21:39:17 63° S
Cosmos 1269 Rocket 3.9 21:35:22 10° NNW 21:40:40 89° ENE 21:41:19 70° SSE
Cosmos 1408 Rocket 3.8 21:40:26 10° NNW 21:44:53 68° W 21:44:55 68° W
Cosmos 1733 4.2 21:45:51 45° NW 21:45:51 45° NW 21:49:06 10° N
Cosmos 1833 Rocket 2.5 21:41:51 10° NNW 21:47:24 76° ENE 21:47:24 76° ENE
Timation 2 Rocket 3.8 21:44:16 10° NNW 21:50:27 71° ENE 21:50:27 71° ENE
Yuri Rocket 4.3 21:47:18 10° W 21:49:59 31° SW 21:49:59 31° SW
ISS -1.0 21:49:02 10° W 21:51:09 17° NW 21:51:09 17° NW
Cosmos 1459 Rocket 4.3 21:49:13 10° SSW 21:55:26 64° W 22:01:35 10° N
ATLAS 5 CENTAUR R/B 3.8 21:55:01 10° WSW 21:58:55 26° NW 22:03:04 10° N
Cosmos 2173 Rocket 4.5 21:55:18 10° SSW 22:01:18 57° W 22:07:26 10° N
Cosmos 158 Rocket 4.3 21:57:56 10° NNW 22:02:37 63° WNW 22:02:37 63° WNW
USA 215 4.0 21:59:43 10° NNE 22:05:55 48° NW 22:12:06 10° WSW
Aurora 2 Rocket 4.4 22:10:57 10° WSW 22:14:46 32° WSW 22:14:46 32° WSW
Envisat 4.3 22:23:11 38° WNW 22:23:11 38° WNW 22:27:14 10° NNW
Cosmos 2082 Rocket 3.2 22:18:04 10° NW 22:23:05 42° W 22:23:05 42° W
